Cumberland, WI

4:17 PM CST on December 07, 2019 (GMT -0600)
Cumberland Municipal

Weather History for KUBE - October, 2019

Change the Weather History Date:

Tuesday, October 1, 2019

  Actual Average (WUND) Record (WUND)
Temperature  
Mean Temperature 57 °F -  
Max Temperature 68 °F - - (-1)
Min Temperature 46 °F - - (-1)
Degree Days  
Heating Degree Days 8    
Growing Degree Days 7 (Base 50)    
Moisture  
Dew Point 48 °F    
Average Humidity 87    
Maximum Humidity 100    
Minimum Humidity 76    
Precipitation  
Precipitation 0.12 in - - ()
Sea Level Pressure  
Sea Level Pressure 29.99 in    
Wind  
Wind Speed 10 mph (North)    
Max Wind Speed 18 mph    
Max Gust Speed 21 mph    
Visibility 10 miles    
Events Rain    
Averages and records for this station are not official NWS values.
T = Trace of Precipitation, MM = Missing Value Source: NWS Daily Summary

Daily Weather History Graph

Daily Weather History Graph

Search for Another Location

Airport or City:

Astronomy

Oct. 01, 2019 Rise Set
Actual Time 7:05 AM CDT 6:48 PM CDT
Civil Twilight 6:36 AM CDT 7:18 PM CDT
Nautical Twilight 6:01 AM CDT 7:52 PM CDT
Astronomical Twilight 5:27 AM CDT 8:27 PM CDT
Moon 10:30 AM CDT (10/1) 8:52 PM CDT (10/1)
Length of Visible Light 12h 41m
Length of Day
11h 42m
Waxing Crescent, 12% of the Moon is Illuminated
Oct 1
Waxing Crescent
Oct 5
First Quarter
Oct 13
Full
Oct 21
Last Quarter
Oct 27
New

Hourly Weather History & Observations

Time (CDT) Temp. Windchill Dew Point Humidity Pressure Visibility Wind Dir Wind Speed Gust Speed Precip Events Conditions
12:15 AM 68.0 °F - 64.4 °F 88% 29.82 in 10.0 mi WNW 12.7 mph 16.1 mph N/A   Overcast
12:35 AM 68.0 °F - 62.6 °F 83% 29.83 in 10.0 mi WNW 11.5 mph - N/A   Overcast
12:55 AM 66.2 °F - 62.6 °F 88% 29.84 in 10.0 mi NW 10.4 mph - N/A   Overcast
1:15 AM 66.2 °F - 60.8 °F 83% 29.85 in 10.0 mi WNW 10.4 mph - N/A   Overcast
1:55 AM 60.8 °F - 59.0 °F 94% 29.89 in 5.0 mi NW 10.4 mph 20.7 mph N/A   Overcast
2:15 AM 59.0 °F - 57.2 °F 94% 29.88 in 4.0 mi NW 13.8 mph - N/A   Overcast
2:35 AM 59.0 °F - 55.4 °F 88% 29.90 in 5.0 mi NNW 11.5 mph 16.1 mph N/A   Overcast
2:55 AM 57.2 °F - 55.4 °F 94% 29.91 in 10.0 mi NNW 10.4 mph - N/A   Overcast
3:15 AM 55.4 °F - 55.4 °F 100% 29.89 in 10.0 mi North 11.5 mph - N/A   Overcast
3:35 AM 55.4 °F - 53.6 °F 94% 29.88 in 10.0 mi North 8.1 mph - N/A   Overcast
3:55 AM 55.4 °F - 53.6 °F 94% 29.87 in 10.0 mi North 12.7 mph - N/A   Overcast
4:15 AM 55.4 °F - 53.6 °F 94% 29.92 in 10.0 mi NW 8.1 mph - N/A   Overcast
4:55 AM 53.6 °F - 51.8 °F 94% 29.98 in 10.0 mi WNW 9.2 mph 16.1 mph N/A   Overcast
5:15 AM 53.6 °F - 50.0 °F 88% 29.99 in 10.0 mi NW 12.7 mph 20.7 mph N/A   Overcast
5:35 AM 51.8 °F - 48.2 °F 88% 29.98 in 10.0 mi NNW 9.2 mph 16.1 mph N/A   Overcast
5:55 AM 51.8 °F - 46.4 °F 82% 29.95 in 10.0 mi North 15.0 mph 20.7 mph N/A   Overcast
6:15 AM 50.0 °F - 46.4 °F 87% 29.95 in 10.0 mi North 10.4 mph 19.6 mph N/A   Overcast
6:35 AM 50.0 °F - 46.4 °F 87% 29.99 in 10.0 mi NNW 3.5 mph - N/A   Overcast
6:55 AM 50.0 °F - 46.4 °F 87% 29.99 in 10.0 mi North 9.2 mph - N/A   Overcast
7:15 AM 50.0 °F - 46.4 °F 87% 29.99 in 10.0 mi North 6.9 mph - N/A   Overcast
7:35 AM 50.0 °F - 46.4 °F 87% 29.97 in 10.0 mi NNE 10.4 mph - N/A   Overcast
7:55 AM 50.0 °F - 46.4 °F 87% 29.99 in 10.0 mi North 8.1 mph - N/A   Overcast
8:15 AM 50.0 °F - 46.4 °F 87% 29.98 in 10.0 mi NNE 5.8 mph - N/A   Overcast
8:35 AM 50.0 °F - 46.4 °F 87% 30.00 in 10.0 mi North 4.6 mph - N/A   Overcast
8:55 AM 50.0 °F - 46.4 °F 87% 30.01 in 10.0 mi North 6.9 mph - N/A   Overcast
9:15 AM 50.0 °F - 46.4 °F 87% 30.00 in 10.0 mi North 8.1 mph - N/A   Mostly Cloudy
9:35 AM 51.8 °F - 46.4 °F 82% 30.00 in 10.0 mi North 10.4 mph - N/A   Mostly Cloudy
9:55 AM 51.8 °F - 46.4 °F 82% 30.01 in 10.0 mi North 9.2 mph - N/A   Overcast
10:15 AM 53.6 °F - 46.4 °F 77% 30.01 in 10.0 mi North 8.1 mph - N/A   Overcast
10:35 AM 51.8 °F - 44.6 °F 76% 30.01 in 10.0 mi North 10.4 mph - N/A   Scattered Clouds
10:55 AM 51.8 °F - 44.6 °F 76% 30.00 in 10.0 mi North 10.4 mph - N/A   Clear
11:15 AM 51.8 °F - 44.6 °F 76% 30.02 in 10.0 mi NNE 6.9 mph - N/A   Clear
11:35 AM 51.8 °F - 46.4 °F 82% 30.03 in 10.0 mi NW 8.1 mph - N/A   Scattered Clouds
11:55 AM 51.8 °F - 46.4 °F 82% 30.02 in 10.0 mi NNW 9.2 mph - N/A   Mostly Cloudy
12:15 PM 51.8 °F - 46.4 °F 82% 30.08 in 10.0 mi WNW 9.2 mph - N/A   Overcast
12:55 PM 50.0 °F - 46.4 °F 87% 29.96 in 10.0 mi NNE 18.4 mph - 0.01 in Rain Light Rain
1:15 PM 50.0 °F - 46.4 °F 87% 30.01 in 10.0 mi North 13.8 mph - N/A   Overcast
1:35 PM 50.0 °F - 46.4 °F 87% 30.00 in 10.0 mi North 11.5 mph 18.4 mph N/A Rain Light Rain
1:55 PM 50.0 °F - 46.4 °F 87% 30.02 in 10.0 mi North 6.9 mph - N/A Rain Light Rain
2:15 PM 50.0 °F - 46.4 °F 87% 30.03 in 10.0 mi Calm Calm - N/A Rain Light Rain
2:35 PM 50.0 °F - 46.4 °F 87% 30.03 in 10.0 mi NNW 3.5 mph - N/A Rain Light Rain
2:55 PM 50.0 °F - 46.4 °F 87% 30.03 in 10.0 mi NNE 3.5 mph - N/A Rain Light Rain
3:15 PM 50.0 °F - 46.4 °F 87% 30.03 in 10.0 mi North 9.2 mph - N/A Rain Light Rain
3:35 PM 50.0 °F - 46.4 °F 87% 30.02 in 10.0 mi North 9.2 mph - N/A Rain Light Rain
3:55 PM 50.0 °F - 46.4 °F 87% 30.03 in 10.0 mi NNE 4.6 mph - N/A   Overcast
4:15 PM 50.0 °F - 46.4 °F 87% 30.03 in 10.0 mi North 5.8 mph - N/A Rain Light Rain
4:35 PM 50.0 °F - 46.4 °F 87% 30.01 in 10.0 mi NNE 9.2 mph - N/A Rain Light Rain
4:55 PM 50.0 °F - 46.4 °F 87% 30.03 in 10.0 mi NNW 6.9 mph - N/A Rain Light Rain
5:15 PM 50.0 °F - 46.4 °F 87% 30.04 in 7.0 mi NNW 4.6 mph - 0.01 in Rain Rain
5:35 PM 48.2 °F - 46.4 °F 93% 30.03 in 10.0 mi North 6.9 mph - 0.04 in Rain Rain
5:55 PM 48.2 °F - 46.4 °F 93% 30.02 in 10.0 mi North 8.1 mph - 0.08 in Rain Rain
6:15 PM 48.2 °F - 46.4 °F 93% 30.02 in 10.0 mi North 9.2 mph - 0.02 in Rain Light Rain
6:35 PM 48.2 °F - 46.4 °F 93% 30.01 in 10.0 mi North 10.4 mph - 0.02 in   Light Drizzle
6:55 PM 48.2 °F - 44.6 °F 87% 30.01 in 10.0 mi North 9.2 mph - 0.02 in Rain Rain
7:15 PM 46.4 °F 41.1 °F 44.6 °F 93% 30.00 in 10.0 mi NNE 11.5 mph 17.3 mph N/A Rain Light Rain
7:35 PM 46.4 °F 42.4 °F 44.6 °F 93% 30.01 in 10.0 mi North 8.1 mph 16.1 mph 0.01 in Rain Rain
7:55 PM 46.4 °F 42.9 °F 44.6 °F 93% 30.02 in 10.0 mi North 6.9 mph - 0.01 in   Scattered Clouds
8:15 PM 46.4 °F 41.5 °F 44.6 °F 93% 30.01 in 10.0 mi NNE 10.4 mph - N/A   Mostly Cloudy
8:35 PM 46.4 °F 41.5 °F 44.6 °F 93% 30.00 in 10.0 mi NNE 10.4 mph - N/A   Overcast
8:55 PM 46.4 °F 42.4 °F 44.6 °F 93% 30.00 in 10.0 mi NNE 8.1 mph - N/A   Overcast
9:15 PM 48.2 °F - 44.6 °F 87% 30.00 in 10.0 mi NE 11.5 mph - N/A   Overcast
9:35 PM 48.2 °F - 42.8 °F 82% 30.01 in 10.0 mi NNE 12.7 mph 17.3 mph N/A   Overcast
9:55 PM 48.2 °F - 42.8 °F 82% 30.02 in 10.0 mi NE 8.1 mph - N/A   Overcast
10:15 PM 48.2 °F - 42.8 °F 82% 30.03 in 10.0 mi NE 10.4 mph - N/A   Overcast
10:35 PM 48.2 °F - 42.8 °F 82% 30.04 in 10.0 mi NNE 10.4 mph 16.1 mph N/A   Overcast
10:55 PM 48.2 °F - 42.8 °F 82% 30.04 in 10.0 mi NE 11.5 mph - N/A   Overcast
11:15 PM 46.4 °F 41.1 °F 42.8 °F 87% 30.04 in 10.0 mi NNE 11.5 mph - N/A   Overcast
11:35 PM 46.4 °F 41.9 °F 42.8 °F 87% 30.05 in 10.0 mi NNE 9.2 mph - N/A   Overcast
11:55 PM 46.4 °F 42.4 °F 42.8 °F 87% 30.05 in 10.0 mi NNE 8.1 mph - N/A   Overcast